GLO1858 SBGL-SBVT

Flight info

Callsign GLO1858
Flight time 0h 45m
Altitude 31000
Route TISVA UL206 TODET
Aircraft B738/M-SDE2E3FGHIRWXY/LB1

Departure

Time 2026-05-09 02:28
Airport Rio Galeão – Tom Jobim International Airport (SBGL)

Arrival

Time 2026-05-09 03:14
Airport Eurico de Aguiar Salles International Airport (SBVT)
Time Latitude Longitude Altitude Speed Heading
2026-05-09 02:13 -22.81520 -43.24791 21 ft 0 kts 38°
2026-05-09 02:19 -22.81522 -43.24792 21 ft 5 kts 38°
2026-05-09 02:19 -22.81553 -43.24818 21 ft 5 kts 33°
2026-05-09 02:20 -22.81566 -43.24825 21 ft 2 kts
2026-05-09 02:20 -22.81576 -43.24821 21 ft 2 kts 304°
2026-05-09 02:20 -22.81580 -43.24814 23 ft 0 kts 304°
2026-05-09 02:21 -22.81578 -43.24817 23 ft 2 kts 304°
2026-05-09 02:22 -22.81560 -43.24841 22 ft 9 kts 315°
2026-05-09 02:22 -22.81506 -43.24910 21 ft 15 kts 301°
2026-05-09 02:22 -22.81449 -43.25014 21 ft 17 kts 300°
2026-05-09 02:22 -22.81376 -43.25128 21 ft 19 kts 316°
2026-05-09 02:23 -22.81295 -43.25237 21 ft 18 kts 305°
2026-05-09 02:23 -22.81210 -43.25335 21 ft 18 kts 323°
2026-05-09 02:23 -22.81099 -43.25382 21 ft 17 kts 349°
2026-05-09 02:23 -22.80970 -43.25391 21 ft 12 kts 321°
2026-05-09 02:24 -22.80939 -43.25443 26 ft 12 kts 295°
2026-05-09 02:24 -22.80904 -43.25526 27 ft 14 kts 296°
2026-05-09 02:24 -22.80850 -43.25637 24 ft 20 kts 304°
2026-05-09 02:24 -22.80738 -43.25661 28 ft 19 kts 33°
2026-05-09 02:25 -22.80631 -43.25579 28 ft 19 kts 33°
2026-05-09 02:25 -22.80519 -43.25543 29 ft 18 kts 330°
2026-05-09 02:25 -22.80416 -43.25612 28 ft 16 kts 338°
2026-05-09 02:25 -22.80351 -43.25597 26 ft 10 kts 34°
2026-05-09 02:26 -22.80292 -43.25548 28 ft 11 kts 38°
2026-05-09 02:26 -22.80231 -43.25499 26 ft 6 kts 31°
2026-05-09 02:26 -22.80194 -43.25490 25 ft 7 kts
2026-05-09 02:26 -22.80176 -43.25463 24 ft 2 kts 74°
2026-05-09 02:27 -22.80174 -43.25455 24 ft 0 kts 73°
2026-05-09 02:27 -22.80173 -43.25454 24 ft 0 kts 75°
2026-05-09 02:27 -22.80173 -43.25451 24 ft 5 kts 74°
2026-05-09 02:28 -22.80094 -43.25154 25 ft 77 kts 75°
2026-05-09 02:28 -22.79889 -43.24367 31 ft 137 kts 74°
2026-05-09 02:28 -22.79609 -43.23233 272 ft 164 kts 75°
2026-05-09 02:28 -22.79312 -43.22020 900 ft 168 kts 74°
2026-05-09 02:29 -22.79031 -43.20791 1492 ft 176 kts 73°
2026-05-09 02:29 -22.78720 -43.19395 1749 ft 204 kts 73°
2026-05-09 02:29 -22.78374 -43.17815 1943 ft 226 kts 74°
2026-05-09 02:29 -22.77999 -43.16080 2120 ft 248 kts 74°
2026-05-09 02:30 -22.77598 -43.14195 2555 ft 262 kts 74°
2026-05-09 02:30 -22.77188 -43.12261 3280 ft 265 kts 73°
2026-05-09 02:30 -22.76772 -43.10291 3944 ft 270 kts 73°
2026-05-09 02:30 -22.76350 -43.08296 4631 ft 274 kts 73°
2026-05-09 02:31 -22.75919 -43.06259 5293 ft 279 kts 73°
2026-05-09 02:31 -22.75483 -43.04198 5989 ft 283 kts 73°
2026-05-09 02:31 -22.75046 -43.02134 6698 ft 286 kts 73°
2026-05-09 02:31 -22.74597 -43.00030 7451 ft 286 kts 73°
2026-05-09 02:32 -22.74150 -42.97936 8253 ft 286 kts 73°
2026-05-09 02:32 -22.73696 -42.95817 8961 ft 291 kts 73°
2026-05-09 02:32 -22.73236 -42.93670 9711 ft 294 kts 73°
2026-05-09 02:32 -22.72772 -42.91500 10387 ft 300 kts 74°
2026-05-09 02:33 -22.72293 -42.89268 10949 ft 308 kts 74°
2026-05-09 02:33 -22.71805 -42.86992 11677 ft 311 kts 74°
2026-05-09 02:33 -22.71314 -42.84705 12463 ft 312 kts 74°
2026-05-09 02:33 -22.70820 -42.82402 13256 ft 315 kts 74°
2026-05-09 02:34 -22.70319 -42.80080 14028 ft 318 kts 73°
2026-05-09 02:34 -22.69814 -42.77737 14704 ft 322 kts 73°
2026-05-09 02:34 -22.69302 -42.75361 15397 ft 326 kts 73°
2026-05-09 02:34 -22.68784 -42.72954 16076 ft 330 kts 73°
2026-05-09 02:35 -22.68259 -42.70518 16741 ft 335 kts 73°
2026-05-09 02:35 -22.67724 -42.68041 17403 ft 339 kts 73°
2026-05-09 02:35 -22.67184 -42.65539 18113 ft 343 kts 73°
2026-05-09 02:35 -22.66636 -42.63003 18742 ft 348 kts 73°
2026-05-09 02:36 -22.66080 -42.60434 19297 ft 352 kts 73°
2026-05-09 02:36 -22.65519 -42.57837 19871 ft 356 kts 73°
2026-05-09 02:36 -22.64949 -42.55207 20456 ft 361 kts 74°
2026-05-09 02:36 -22.64374 -42.52551 21032 ft 364 kts 74°
2026-05-09 02:37 -22.63792 -42.49867 21620 ft 368 kts 74°
2026-05-09 02:37 -22.63203 -42.47153 22184 ft 372 kts 74°
2026-05-09 02:37 -22.62606 -42.44406 22714 ft 377 kts 75°
2026-05-09 02:37 -22.62003 -42.41628 23281 ft 381 kts 75°
2026-05-09 02:38 -22.61393 -42.38824 23817 ft 384 kts 75°
2026-05-09 02:38 -22.60780 -42.36007 24288 ft 387 kts 75°
2026-05-09 02:38 -22.60167 -42.33195 24716 ft 391 kts 75°
2026-05-09 02:38 -22.59538 -42.30311 25144 ft 396 kts 75°
2026-05-09 02:39 -22.58888 -42.27403 25594 ft 399 kts 71°
2026-05-09 02:39 -22.57695 -42.24712 25978 ft 398 kts 51°
2026-05-09 02:39 -22.55779 -42.22568 26439 ft 396 kts 38°
2026-05-09 02:39 -22.53658 -42.20650 26883 ft 399 kts 36°
2026-05-09 02:40 -22.51486 -42.18744 27027 ft 405 kts 36°
2026-05-09 02:40 -22.49265 -42.16802 27061 ft 417 kts 37°
2026-05-09 02:40 -22.46983 -42.14795 27160 ft 429 kts 37°
2026-05-09 02:40 -22.44653 -42.12727 27424 ft 434 kts 37°
2026-05-09 02:41 -22.42341 -42.10658 28114 ft 429 kts 37°
2026-05-09 02:41 -22.40059 -42.08609 28857 ft 424 kts 37°
2026-05-09 02:41 -22.37805 -42.06581 29555 ft 420 kts 37°
2026-05-09 02:41 -22.35567 -42.04570 30152 ft 418 kts 37°
2026-05-09 02:42 -22.33329 -42.02561 30558 ft 418 kts 37°
2026-05-09 02:42 -22.31094 -42.00556 30956 ft 418 kts 37°
2026-05-09 02:42 -22.28850 -41.98544 31020 ft 421 kts 37°
2026-05-09 02:43 -22.24240 -41.94417 31048 ft 440 kts 37°
2026-05-09 02:43 -22.19441 -41.90120 31049 ft 455 kts 37°
2026-05-09 02:44 -22.14526 -41.85720 31053 ft 460 kts 37°
2026-05-09 02:44 -22.09596 -41.81307 31050 ft 461 kts 37°
2026-05-09 02:45 -22.04672 -41.76892 31041 ft 460 kts 37°
2026-05-09 02:45 -21.99768 -41.72498 31074 ft 457 kts 37°
2026-05-09 02:46 -21.94880 -41.68127 31053 ft 456 kts 37°
2026-05-09 02:46 -21.90033 -41.63808 31065 ft 454 kts 37°
2026-05-09 02:47 -21.85161 -41.59475 31051 ft 454 kts 37°
2026-05-09 02:47 -21.80328 -41.55176 30723 ft 444 kts 37°
2026-05-09 02:47 -21.77973 -41.53082 30394 ft 437 kts 37°
2026-05-09 02:48 -21.75636 -41.51006 29960 ft 434 kts 37°
2026-05-09 02:48 -21.73318 -41.48947 29483 ft 430 kts 37°
2026-05-09 02:48 -21.71019 -41.46906 29030 ft 426 kts 37°
2026-05-09 02:48 -21.68743 -41.44886 28589 ft 422 kts 37°
2026-05-09 02:49 -21.66488 -41.42886 28153 ft 418 kts 37°
2026-05-09 02:49 -21.64252 -41.40905 27728 ft 415 kts 37°
2026-05-09 02:49 -21.62043 -41.38953 27400 ft 409 kts 37°
2026-05-09 02:49 -21.59848 -41.37019 26969 ft 406 kts 37°
2026-05-09 02:50 -21.57674 -41.35103 26555 ft 403 kts 37°
2026-05-09 02:50 -21.55517 -41.33202 26128 ft 400 kts 38°
2026-05-09 02:50 -21.53369 -41.31308 25710 ft 398 kts 38°
2026-05-09 02:50 -21.51237 -41.29431 25301 ft 395 kts 37°
2026-05-09 02:51 -21.49117 -41.27564 24885 ft 393 kts 37°
2026-05-09 02:51 -21.47015 -41.25704 24543 ft 389 kts 38°
2026-05-09 02:51 -21.44932 -41.23857 24143 ft 387 kts 38°
2026-05-09 02:51 -21.42861 -41.22020 23731 ft 385 kts 37°
2026-05-09 02:52 -21.40799 -41.20192 23260 ft 384 kts 38°
2026-05-09 02:52 -21.38746 -41.18373 22818 ft 381 kts 37°
2026-05-09 02:52 -21.36712 -41.16572 22387 ft 378 kts 38°
2026-05-09 02:52 -21.34690 -41.14782 21975 ft 375 kts 38°
2026-05-09 02:53 -21.32690 -41.13013 21580 ft 372 kts 38°
2026-05-09 02:53 -21.30701 -41.11255 21199 ft 368 kts 38°
2026-05-09 02:53 -21.28743 -41.09530 20928 ft 362 kts 38°
2026-05-09 02:53 -21.26824 -41.07843 20545 ft 360 kts 38°
2026-05-09 02:54 -21.24899 -41.06152 20169 ft 357 kts 38°
2026-05-09 02:54 -21.22983 -41.04469 19786 ft 355 kts 38°
2026-05-09 02:54 -21.21078 -41.02795 19402 ft 353 kts 38°
2026-05-09 02:54 -21.19185 -41.01132 19020 ft 351 kts 38°
2026-05-09 02:55 -21.17296 -40.99472 18616 ft 351 kts 38°
2026-05-09 02:55 -21.15415 -40.97821 18216 ft 349 kts 38°
2026-05-09 02:55 -21.13545 -40.96178 17788 ft 347 kts 38°
2026-05-09 02:55 -21.11685 -40.94545 17383 ft 344 kts 38°
2026-05-09 02:56 -21.09842 -40.92928 16996 ft 341 kts 38°
2026-05-09 02:56 -21.08016 -40.91326 16611 ft 338 kts 38°
2026-05-09 02:56 -21.06204 -40.89739 16259 ft 335 kts 38°
2026-05-09 02:56 -21.04427 -40.88181 16016 ft 327 kts 38°
2026-05-09 02:57 -21.02671 -40.86643 15664 ft 325 kts 38°
2026-05-09 02:57 -21.00927 -40.85116 15316 ft 323 kts 38°
2026-05-09 02:57 -20.99195 -40.83599 14957 ft 321 kts 38°
2026-05-09 02:57 -20.97473 -40.82091 14605 ft 319 kts 38°
2026-05-09 02:58 -20.95763 -40.80594 14249 ft 317 kts 38°
2026-05-09 02:58 -20.94059 -40.79103 13888 ft 315 kts 38°
2026-05-09 02:58 -20.92364 -40.77621 13485 ft 314 kts 38°
2026-05-09 02:58 -20.90681 -40.76148 13103 ft 312 kts 38°
2026-05-09 02:59 -20.89007 -40.74684 12739 ft 309 kts 38°
2026-05-09 02:59 -20.87347 -40.73234 12375 ft 307 kts 38°
2026-05-09 02:59 -20.85698 -40.71792 12019 ft 305 kts 38°
2026-05-09 02:59 -20.84059 -40.70360 11666 ft 303 kts 38°
2026-05-09 03:00 -20.82432 -40.68940 11304 ft 301 kts 38°
2026-05-09 03:00 -20.80826 -40.67513 10971 ft 300 kts 41°
2026-05-09 03:00 -20.79486 -40.65810 10641 ft 300 kts 52°
2026-05-09 03:00 -20.78289 -40.64011 10470 ft 293 kts 53°
2026-05-09 03:01 -20.77133 -40.62243 10331 ft 287 kts 53°
2026-05-09 03:01 -20.76001 -40.60517 10201 ft 279 kts 53°
2026-05-09 03:01 -20.74895 -40.58846 10042 ft 273 kts 52°
2026-05-09 03:01 -20.73794 -40.57194 9750 ft 272 kts 52°
2026-05-09 03:02 -20.72698 -40.55557 9453 ft 270 kts 52°
2026-05-09 03:02 -20.71606 -40.53932 9164 ft 269 kts 52°
2026-05-09 03:02 -20.70519 -40.52317 8881 ft 267 kts 52°
2026-05-09 03:02 -20.69437 -40.50713 8602 ft 265 kts 52°
2026-05-09 03:03 -20.68361 -40.49118 8324 ft 264 kts 52°
2026-05-09 03:03 -20.67651 -40.48067 8139 ft 263 kts 52°
2026-05-09 03:03 -20.66581 -40.46485 7865 ft 262 kts 52°
2026-05-09 03:03 -20.65520 -40.44915 7590 ft 260 kts 52°
2026-05-09 03:04 -20.64104 -40.42823 7224 ft 259 kts 52°
2026-05-09 03:04 -20.63408 -40.41794 7049 ft 258 kts 52°
2026-05-09 03:04 -20.62009 -40.39728 6682 ft 256 kts 52°
2026-05-09 03:04 -20.61319 -40.38709 6505 ft 255 kts 52°
2026-05-09 03:05 -20.60280 -40.37175 6203 ft 254 kts 52°
2026-05-09 03:05 -20.59247 -40.35650 5931 ft 253 kts 52°
2026-05-09 03:05 -20.58220 -40.34135 5660 ft 251 kts 52°
2026-05-09 03:05 -20.57196 -40.32623 5359 ft 251 kts 52°
2026-05-09 03:06 -20.56170 -40.31111 5063 ft 251 kts 51°
2026-05-09 03:06 -20.55155 -40.29614 4780 ft 244 kts 51°
2026-05-09 03:06 -20.54202 -40.28206 4679 ft 224 kts 51°
2026-05-09 03:06 -20.53313 -40.26895 4311 ft 216 kts 51°
2026-05-09 03:07 -20.52465 -40.25644 4155 ft 203 kts 51°
2026-05-09 03:07 -20.51466 -40.24675 4015 ft 191 kts 22°
2026-05-09 03:07 -20.50209 -40.24379 3884 ft 182 kts
2026-05-09 03:07 -20.48975 -40.24522 3714 ft 176 kts 354°
2026-05-09 03:08 -20.47787 -40.24704 3543 ft 169 kts 355°
2026-05-09 03:08 -20.46641 -40.24877 3387 ft 164 kts 355°
2026-05-09 03:08 -20.45521 -40.25044 3244 ft 163 kts 355°
2026-05-09 03:08 -20.44391 -40.25212 3109 ft 165 kts 355°
2026-05-09 03:09 -20.43252 -40.25381 2967 ft 164 kts 355°
2026-05-09 03:09 -20.42146 -40.25527 2791 ft 154 kts 353°
2026-05-09 03:09 -20.41110 -40.25688 2669 ft 150 kts 353°
2026-05-09 03:09 -20.40065 -40.25846 2523 ft 152 kts 353°
2026-05-09 03:10 -20.39048 -40.26000 2388 ft 144 kts 353°
2026-05-09 03:10 -20.38101 -40.26142 2279 ft 134 kts 353°
2026-05-09 03:10 -20.37180 -40.26279 2115 ft 133 kts 353°
2026-05-09 03:10 -20.36253 -40.26416 1994 ft 135 kts 352°
2026-05-09 03:11 -20.35318 -40.26555 1860 ft 136 kts 353°
2026-05-09 03:11 -20.34375 -40.26695 1665 ft 136 kts 352°
2026-05-09 03:11 -20.33432 -40.26835 1484 ft 138 kts 353°
2026-05-09 03:11 -20.32483 -40.26976 1315 ft 137 kts 353°
2026-05-09 03:12 -20.31535 -40.27116 1107 ft 138 kts 353°
2026-05-09 03:12 -20.30589 -40.27256 920 ft 138 kts 353°
2026-05-09 03:12 -20.29641 -40.27396 729 ft 138 kts 353°
2026-05-09 03:12 -20.28694 -40.27533 555 ft 137 kts 354°
2026-05-09 03:13 -20.26861 -40.27813 137 ft 133 kts 353°
2026-05-09 03:13 -20.25989 -40.27936 19 ft 115 kts 352°
2026-05-09 03:13 -20.25415 -40.28023 20 ft 52 kts 352°
2026-05-09 03:14 -20.25234 -40.28078 19 ft 11 kts 279°
2026-05-09 03:14 -20.25281 -40.28139 18 ft 12 kts 212°
2026-05-09 03:14 -20.25358 -40.28188 17 ft 15 kts 204°
2026-05-09 03:14 -20.25473 -40.28189 17 ft 19 kts 172°
2026-05-09 03:15 -20.25604 -40.28170 17 ft 19 kts 172°
2026-05-09 03:15 -20.25731 -40.28151 17 ft 18 kts 172°
2026-05-09 03:15 -20.25853 -40.28133 19 ft 17 kts 172°
2026-05-09 03:15 -20.25972 -40.28115 17 ft 17 kts 172°
2026-05-09 03:16 -20.26089 -40.28099 18 ft 18 kts 172°
2026-05-09 03:16 -20.26215 -40.28080 17 ft 18 kts 171°
2026-05-09 03:16 -20.26339 -40.28062 19 ft 18 kts 172°
2026-05-09 03:16 -20.26444 -40.28060 19 ft 9 kts 239°
2026-05-09 03:17 -20.26453 -40.28124 17 ft 9 kts 262°
2026-05-09 03:17 -20.26458 -40.28170 17 ft 1 kts 263°
2026-05-09 03:17 -20.26459 -40.28179 17 ft 0 kts 263°